Weather in Suluk

Russia / Khabarovsk Krai     50°39′09″N   133°35′01″E
temp.,
°C
wind,
m/s
gust,
m/s
humid.,
%
clouds,
%
prec.,
mm/h
press.,
hPa
HPBL,
m
26 february, fri
fri2601:00−22nw2298100 0.0 102544
04:00−22nw2298100 0.1 102550
07:00−24nw2298100 0.0 102637
10:00−21nw2395100 0.0 1027211
13:00−17nw2390100 0.0 1027337
16:00−16nw349099 0.0 1027393
19:00−22nw239885 0.0 103031
22:00−23nnw129562 0.0 103220
27 february, sat
sat2701:00−23nw22960 0.0 103320
04:00−23nnw12920 0.0 103320
07:00−23ne018661 0.0 103220
10:00−16se118281 0.0 103058
13:00−11s2672100 0.0 1027527
16:00−12sse3787100 0.2 1022599
19:00−13sse2887100 0.2 1019499
22:00−15s21195100 0.6 1018652
28 february, sun
sun2801:00−16sse1797100 1.4 1015366
04:00−16ssw1197100 2.3 101437
07:00−19sw1199100 0.4 101520
10:00−16w3793100 0.8 1016644
13:00−17wnw598399 0.1 1018975
16:00−17wnw598296 0.1 10191083
19:00−21wnw4109498 0.1 1023654
22:00−25wnw3109898 0.2 1026471
1 march, mon
mon101:00−26wnw31098100 0.1 1027566
04:00−28wnw2499100 0.3 1029139
07:00−30wnw2299100 0.1 103039
10:00−27wnw388994 0.1 1031636
13:00−23wnw5107640 0.0 10291041
16:00−23wnw5108046 0.0 10291226
19:00−27wnw41091100 0.0 1030535
22:00−31nw259899 0.1 1032151
2 march, tue
tue201:00−31nw2299100 0.1 103231
04:00−32nw2299100 0.1 103224
07:00−32nw1299100 0.1 103319
10:00−28wnw1295100 0.1 1031290
13:00−24wnw4782100 0.0 10291173
16:00−23wnw4781100 0.1 10271290
19:00−26w1299100 0.1 102819
22:00−30wnw1110095 0.1 103019